Volver al catálogo

STARLINK-37240

ActivoComunicacionesSSO
NORAD 69031·PAYLOAD·🇺🇸 United States

Lanzado May 6, 2026 desde Vandenberg Space Force Base

Loading…

Próximos Pases (próximas 24 horas)

TLE

ActualizadoSource: CelesTrak SupGP

Época: Sep 15, 2026, 03:18 UTC

1 69031C 26101G   26258.13798611 -.00019785  00000+0 -61404-3 0  2585
2 69031  97.2844 111.7357 0001876  95.6450 118.4803 15.33454491    16

Sigue STARLINK-37240 en tiempo real con AllMySat

Download on the App Store